パンスターズ彗星

P/2012 B1 ( PanSTARRS )

English version
Home page
Updated on April 29, 2013

---------------------------------------------------------------------

・ プロフィール

発見日 2012年1月25日
発見光度 19.7等
発見者 Pan-STARRS 1 telescope (Haleakala)

・ 写真集

・ 軌道要素

Epoch 2013 July 7.0 TT = JDT 2456480.5
T 2013 July 23.07200 TT                                 MPC
q   3.8253513            (2000.0)            P               Q
n   0.05958116     Peri.  162.16896     -0.94746586     +0.31010408
a   6.4922725      Node    36.19657     -0.30725098     -0.81425508
e   0.4107839      Incl.    7.62722     -0.08891165     -0.49073835
P  16.5
From 257 observations 1997 June 1-2012 Oct. 23, mean residual 0".5.

・ 星図

・ 光度変化

        m1 = 3.3 + 5 logΔ + 17.5 log r

---------------------------------------------------------------------

軌道要素はM.P.E.C. 2012-V101に掲載されたものです。
星図はステラナビゲータ Ver.8 (アストロアーツ) で作成したものです。
光度グラフはComet for Windowsで作成したものです。

---------------------------------------------------------------------

Copyright(C) Seiichi Yoshida (comet@aerith.net). All rights reserved.